CW4869 Weather Reports


Display with metric or nautical units.
time (UTC)temp
F
wind
direction
speed
MPH
gust
MPH
rain 1hr
in
rain 24hr
in
rain mn
in
humidity
%
barometer
mb
20181117171927 34 355 5.0 12.0 0.00 0.00 0.00 72 1023.6
20181117171429 34 329 7.0 12.0 0.00 0.00 0.00 72 1023.5
20181117170931 35 315 5.0 10.0 0.00 0.00 0.00 72 1023.5
20181117170434 35 324 3.0 9.0 0.00 0.00 0.00 72 1023.5
20181117165925 35 333 3.0 9.0 0.00 0.00 0.00 71 1023.5
20181117162423 35 328 5.0 11.0 0.00 0.00 0.00 71 1023.3
20181117161929 34 349 5.0 14.0 0.00 0.00 0.00 71 1023.4
20181117161431 34 285 5.0 14.0 0.00 0.00 0.00 71 1023.4
20181117160937 34 355 9.0 14.0 0.00 0.00 0.00 70 1023.4
20181117160441 34 292 8.0 14.0 0.00 0.00 0.00 70 1023.3
20181117155928 35 337 4.0 14.0 0.00 0.00 0.00 70 1023.3
20181117155435 35 322 5.0 13.0 0.00 0.00 0.00 70 1023.2
20181117154926 34 313 6.0 13.0 0.00 0.00 0.00 70 1023.2
20181117154431 34 332 2.0 11.0 0.00 0.00 0.00 71 1023.1
20181117153923 34 347 5.0 11.0 0.00 0.00 0.00 71 1023.0
20181117153424 34 323 2.0 10.0 0.00 0.00 0.00 72 1022.8
20181117152425 34 331 7.0 13.0 0.00 0.00 0.00 70 1022.8
20181117151932 34 306 5.0 13.0 0.00 0.00 0.00 70 1022.7
20181117151437 34 328 4.0 12.0 0.00 0.00 0.00 71 1022.6
20181117150921 34 315 4.0 15.0 0.00 0.00 0.00 70 1022.7
20181117150424 34 327 8.0 15.0 0.00 0.00 0.00 70 1022.7
20181117145934 34 326 5.0 13.0 0.00 0.01 0.00 71 1022.7
20181117145439 34 315 3.0 14.0 0.00 0.01 0.00 72 1022.6
20181117144929 34 299 9.0 14.0 0.00 0.01 0.00 72 1022.6
20181117144430 34 355 5.0 12.0 0.00 0.01 0.00 73 1022.6
20181117143919 34 254 7.0 12.0 0.00 0.01 0.00 72 1022.6
20181117143422 34 309 6.0 12.0 0.00 0.01 0.00 73 1022.6
20181117142930 34 321 6.0 12.0 0.00 0.01 0.00 73 1022.5
20181117142432 34 325 5.0 15.0 0.00 0.01 0.00 72 1022.6
20181117141937 34 315 6.0 15.0 0.00 0.01 0.00 73 1022.6
20181117141438 34 298 6.0 11.0 0.00 0.01 0.00 72 1022.6
20181117140919 34 321 5.0 11.0 0.00 0.01 0.00 73 1022.5
20181117135919 33 9 4.0 11.0 0.00 0.03 0.00 74 1022.4
20181117135441 33 315 4.0 11.0 0.00 0.03 0.00 73 1022.2
20181117134928 33 239 3.0 10.0 0.00 0.03 0.00 73 1022.2
20181117134429 33 291 5.0 12.0 0.00 0.03 0.00 73 1022.1
20181117133936 33 292 5.0 14.0 0.00 0.03 0.00 73 1022.0
20181117133438 33 342 7.0 14.0 0.00 0.03 0.00 72 1022.0
20181117132922 33 296 5.0 13.0 0.00 0.03 0.00 72 1021.8
20181117132422 33 321 6.0 14.0 0.00 0.03 0.00 72 1021.7
20181117131929 33 324 6.0 14.0 0.00 0.03 0.00 72 1021.6
20181117131424 33 344 4.0 11.0 0.00 0.03 0.00 72 1021.7
20181117130927 33 317 6.0 12.0 0.00 0.03 0.00 71 1021.7
20181117130428 33 322 7.0 12.0 0.00 0.03 0.00 71 1021.5
20181117125936 33 327 5.0 11.0 0.00 0.03 0.00 71 1021.4
20181117125435 33 321 5.0 13.0 0.00 0.03 0.00 71 1021.4
20181117124920 33 315 5.0 15.0 0.00 0.03 0.00 71 1021.4
20181117124421 33 277 9.0 15.0 0.00 0.03 0.00 71 1021.3
20181117123928 33 297 6.0 11.0 0.00 0.03 0.00 71 1021.2
20181117123429 33 307 5.0 15.0 0.00 0.03 0.00 71 1021.1
20181117122929 33 298 7.0 15.0 0.00 0.03 0.00 70 1021.0
20181117122430 33 341 7.0 14.0 0.00 0.03 0.00 71 1021.0
20181117121937 33 259 5.0 13.0 0.00 0.03 0.00 71 1021.0
20181117121437 33 277 5.0 13.0 0.00 0.03 0.00 70 1020.8
20181117120922 33 331 7.0 13.0 0.00 0.03 0.00 70 1020.6
20181117120423 33 313 6.0 12.0 0.00 0.03 0.00 71 1020.6
20181117115931 33 15 5.0 12.0 0.00 0.03 0.00 71 1020.5
20181117115433 33 13 5.0 12.0 0.00 0.03 0.00 71 1020.4
20181117114921 34 296 5.0 12.0 0.00 0.03 0.00 70 1020.4
20181117114423 34 311 5.0 15.0 0.00 0.03 0.00 70 1020.4
20181117113924 34 338 9.0 17.0 0.00 0.03 0.00 70 1020.3
20181117113428 33 285 7.0 15.0 0.00 0.03 0.00 71 1020.2
20181117112936 33 288 5.0 11.0 0.00 0.03 0.00 71 1020.3
20181117112439 34 271 5.0 12.0 0.00 0.03 0.00 71 1020.1
20181117111925 34 302 4.0 12.0 0.00 0.03 0.00 71 1020.1
20181117111428 34 295 6.0 14.0 0.00 0.03 0.00 71 1020.1
20181117110929 34 300 5.0 15.0 0.00 0.03 0.00 70 1020.0
20181117110433 34 300 6.0 15.0 0.00 0.03 0.00 71 1020.1
20181117105921 34 281 6.0 12.0 0.00 0.03 0.00 71 1019.9
20181117105423 34 296 3.0 15.0 0.00 0.03 0.00 71 1020.0
20181117104927 34 305 6.0 15.0 0.00 0.03 0.00 70 1019.7
20181117104431 34 283 7.0 15.0 0.00 0.03 0.00 70 1019.8
20181117103939 34 313 5.0 16.0 0.00 0.03 0.00 71 1019.8
20181117103440 34 303 6.0 14.0 0.00 0.03 0.00 71 1019.8
20181117102930 34 295 6.0 15.0 0.00 0.03 0.00 71 1019.7
20181117102432 34 331 6.0 16.0 0.00 0.03 0.00 71 1019.6
20181117101938 34 315 6.0 17.0 0.00 0.03 0.00 71 1019.5
20181117101421 34 307 9.0 15.0 0.00 0.03 0.00 71 1019.3
20181117100925 34 308 5.0 14.0 0.00 0.03 0.00 72 1019.4
20181117100428 34 293 6.0 17.0 0.00 0.03 0.00 72 1019.3
20181117095931 34 348 8.0 17.0 0.00 0.03 0.00 71 1019.1
20181117095434 34 325 5.0 16.0 0.00 0.03 0.00 71 1019.1
20181117094440 34 324 6.0 14.0 0.00 0.03 0.00 71 1018.9
20181117093929 34 309 10.0 13.0 0.00 0.03 0.00 71 1018.9
20181117093433 34 320 8.0 13.0 0.00 0.03 0.00 72 1018.9
20181117092922 34 331 7.0 16.0 0.00 0.03 0.00 72 1018.9
20181117092426 34 300 7.0 14.0 0.00 0.03 0.00 72 1018.9
20181117091934 34 291 6.0 16.0 0.00 0.03 0.00 72 1018.8
20181117091432 34 293 8.0 17.0 0.00 0.03 0.00 71 1018.7
20181117090937 34 343 8.0 17.0 0.00 0.03 0.00 71 1018.6
20181117090440 34 336 9.0 17.0 0.00 0.03 0.00 72 1018.5
20181117085929 34 306 5.0 18.0 0.00 0.03 0.00 72 1018.4
20181117085433 34 336 6.0 15.0 0.00 0.03 0.00 72 1018.4
20181117084920 34 5 9.0 18.0 0.00 0.03 0.00 72 1018.3
20181117084445 34 290 8.0 18.0 0.00 0.03 0.00 71 1018.2
20181117083934 34 355 7.0 17.0 0.00 0.03 0.00 71 1018.1
20181117083436 34 325 10.0 17.0 0.00 0.03 0.00 70 1018.1
20181117082923 34 309 10.0 20.0 0.00 0.03 0.00 71 1018.0
20181117082426 34 335 11.0 20.0 0.00 0.03 0.00 71 1017.8
20181117081930 34 324 11.0 21.0 0.00 0.03 0.00 72 1017.6
20181117081433 34 311 10.0 21.0 0.00 0.03 0.00 72 1017.6
20181117080936 34 292 9.0 19.0 0.00 0.03 0.00 73 1017.5
20181117080440 34 355 11.0 20.0 0.00 0.03 0.00 72 1017.5
20181117075926 34 297 10.0 20.0 0.00 0.03 0.00 74 1017.4
20181117075429 34 342 12.0 21.0 0.00 0.03 0.00 74 1017.3
20181117074938 34 327 9.0 21.0 0.00 0.03 0.00 75 1017.2
20181117074422 34 315 10.0 21.0 0.00 0.03 0.00 76 1017.2
20181117073932 34 321 10.0 18.0 0.00 0.03 0.00 77 1017.1
20181117073437 34 312 7.0 19.0 0.00 0.03 0.00 78 1017.2
20181117072921 34 360 9.0 22.0 0.00 0.03 0.00 77 1017.1
20181117072425 34 321 14.0 22.0 0.00 0.03 0.00 77 1017.1
20181117071933 34 5 12.0 27.0 0.00 0.03 0.00 78 1017.0
20181117071435 35 290 13.0 27.0 0.00 0.03 0.00 77 1016.9
20181117070921 35 63 9.0 26.0 0.00 0.03 0.00 77 1016.8
20181117070424 35 344 13.0 25.0 0.00 0.03 0.00 78 1016.8
20181117065930 35 318 10.0 20.0 0.00 0.03 0.00 79 1016.6
20181117065433 35 313 8.0 20.0 0.00 0.03 0.00 78 1016.5
20181117064939 35 299 9.0 17.0 0.00 0.03 0.00 78 1016.4
20181117064422 35 304 8.0 17.0 0.00 0.03 0.00 78 1016.4
20181117063926 35 329 8.0 17.0 0.00 0.03 0.00 78 1016.3
20181117063428 35 331 9.0 18.0 0.00 0.03 0.00 79 1016.3
20181117062935 35 278 11.0 20.0 0.00 0.03 0.00 78 1016.3
20181117062437 35 308 8.0 20.0 0.00 0.03 0.00 79 1016.2
20181117061924 35 329 10.0 20.0 0.00 0.03 0.00 78 1016.0
20181117061422 36 333 10.0 21.0 0.00 0.03 0.00 78 1016.0
20181117060925 36 314 12.0 21.0 0.00 0.03 0.00 80 1015.9
20181117060427 36 300 10.0 16.0 0.00 0.03 0.00 82 1015.7
20181117055933 36 273 6.0 13.0 0.00 0.03 0.00 82 1015.6
20181117055434 36 278 5.0 17.0 0.00 0.03 0.00 82 1015.5
20181117054937 36 307 6.0 17.0 0.00 0.03 0.00 82 1015.3
20181117054438 36 280 6.0 15.0 0.00 0.03 0.00 82 1015.3
20181117053926 37 301 7.0 18.0 0.00 0.03 0.00 81 1015.2
20181117053428 37 277 8.0 21.0 0.00 0.03 0.00 80 1015.3
20181117052934 37 296 8.0 21.0 0.00 0.03 0.00 81 1015.2
20181117052436 37 360 8.0 15.0 0.00 0.03 0.00 81 1015.1
20181117051924 37 273 8.0 15.0 0.00 0.03 0.00 81 1015.2
20181117051424 37 300 8.0 15.0 0.00 0.03 0.00 81 1015.0
20181117050927 37 281 8.0 16.0 0.00 0.03 0.00 81 1014.9
20181117050428 37 272 6.0 20.0 0.00 0.03 0.00 82 1014.8
20181117045921 37 296 8.0 20.0 0.00 0.03 0.03 82 1014.7
20181117045421 37 277 8.0 16.0 0.00 0.03 0.03 82 1014.7
20181117044930 37 306 9.0 16.0 0.00 0.03 0.03 83 1014.6
20181117043931 37 273 9.0 20.0 0.00 0.03 0.03 83 1014.6
20181117043433 37 267 9.0 18.0 0.00 0.03 0.03 83 1014.5
20181117042937 37 286 9.0 21.0 0.00 0.03 0.03 83 1014.4
20181117042435 37 246 10.0 21.0 0.00 0.03 0.03 84 1014.3
20181117041921 37 281 8.0 17.0 0.00 0.03 0.03 85 1014.2
20181117041423 37 286 8.0 17.0 0.00 0.03 0.03 85 1014.2
20181117040926 37 273 9.0 15.0 0.00 0.03 0.03 85 1014.1
20181117040427 37 333 9.0 17.0 0.00 0.03 0.03 85 1014.1
20181117035934 37 268 9.0 17.0 0.00 0.03 0.03 86 1014.0
20181117035436 37 284 10.0 18.0 0.00 0.03 0.03 86 1013.9
20181117034924 37 240 7.0 15.0 0.00 0.03 0.03 86 1013.9
20181117034427 37 273 8.0 15.0 0.00 0.03 0.03 86 1013.8
20181117033934 37 260 8.0 15.0 0.00 0.03 0.03 86 1013.8
20181117033433 37 247 8.0 15.0 0.00 0.03 0.03 86 1013.8
20181117032922 37 272 9.0 15.0 0.00 0.03 0.03 87 1013.8
20181117032445 37 265 9.0 17.0 0.00 0.03 0.03 87 1013.7
20181117031422 37 240 9.0 15.0 0.00 0.03 0.03 86 1013.7
20181117030927 37 259 8.0 14.0 0.00 0.03 0.03 86 1013.6
20181117030429 37 264 6.0 15.0 0.00 0.03 0.03 87 1013.4
20181117025938 37 205 8.0 15.0 0.00 0.03 0.03 87 1013.3
20181117025421 37 292 7.0 15.0 0.00 0.03 0.03 87 1013.2
20181117024928 37 296 7.0 17.0 0.00 0.03 0.03 87 1013.3
20181117024432 37 230 7.0 15.0 0.00 0.03 0.03 87 1013.2
20181117023939 37 282 8.0 16.0 0.00 0.03 0.03 87 1013.2
20181117023421 37 279 10.0 17.0 0.00 0.03 0.03 87 1013.0
20181117022931 37 291 7.0 17.0 0.00 0.03 0.03 87 1013.0
20181117022434 37 291 9.0 16.0 0.00 0.03 0.03 88 1012.9
20181117021925 37 290 7.0 16.0 0.00 0.03 0.03 88 1012.9
20181117021427 37 240 7.0 18.0 0.00 0.03 0.03 88 1012.9
20181117020931 37 312 7.0 19.0 0.00 0.03 0.03 88 1012.8
20181117020434 37 273 8.0 19.0 0.00 0.03 0.03 88 1012.8
20181117015937 37 273 10.0 17.0 0.00 0.03 0.03 88 1012.7
20181117015439 37 253 10.0 17.0 0.00 0.03 0.03 89 1012.6
20181117014924 37 251 9.0 19.0 0.00 0.03 0.03 88 1012.6
20181117014428 37 261 11.0 19.0 0.00 0.03 0.03 89 1012.5
20181117013935 37 282 7.0 20.0 0.00 0.03 0.03 88 1012.4
20181117013437 37 269 9.0 22.0 0.00 0.03 0.03 89 1012.4
20181117012923 37 281 12.0 21.0 0.00 0.03 0.03 89 1012.3
20181117012425 37 286 7.0 17.0 0.00 0.03 0.03 89 1012.2
20181117011931 37 333 10.0 17.0 0.00 0.03 0.03 89 1012.2
20181117011432 37 290 7.0 17.0 0.00 0.03 0.03 89 1012.2
20181117010933 37 240 8.0 17.0 0.00 0.03 0.03 89 1012.1
20181117010435 37 281 11.0 17.0 0.00 0.03 0.03 89 1012.2
20181117005921 37 277 10.0 17.0 0.00 0.03 0.03 89 1012.1
20181117005425 37 284 8.0 17.0 0.00 0.03 0.03 89 1012.0
20181117004932 37 284 9.0 17.0 0.00 0.03 0.03 89 1012.0
20181117004435 37 310 7.0 16.0 0.00 0.03 0.03 89 1011.9
20181117003922 37 286 8.0 14.0 0.00 0.03 0.03 89 1011.8
20181117003425 37 251 8.0 16.0 0.00 0.03 0.03 89 1011.8
20181117002933 37 249 7.0 18.0 0.00 0.03 0.03 89 1011.8
20181117002437 37 251 10.0 18.0 0.00 0.03 0.03 89 1011.7
20181117001920 37 246 11.0 18.0 0.00 0.03 0.03 89 1011.7
20181117001423 37 260 8.0 17.0 0.00 0.03 0.03 89 1011.7
20181117000929 37 259 8.0 17.0 0.00 0.03 0.03 89 1011.7
20181117000432 37 299 8.0 17.0 0.00 0.03 0.03 89 1011.6
20181116235921 37 277 7.0 17.0 0.00 0.03 0.03 89 1011.4
20181116235425 37 267 7.0 21.0 0.00 0.03 0.03 89 1011.3
20181116234936 37 300 11.0 21.0 0.00 0.03 0.03 89 1011.4
20181116234441 36 272 8.0 17.0 0.00 0.03 0.03 89 1011.4
20181116233925 36 272 9.0 19.0 0.00 0.03 0.03 89 1011.2
20181116233429 36 293 9.0 21.0 0.00 0.03 0.03 89 1011.1
20181116232933 36 269 12.0 21.0 0.00 0.03 0.03 89 1010.9
20181116232437 36 278 8.0 19.0 0.00 0.03 0.03 90 1010.9
20181116231926 36 264 10.0 19.0 0.00 0.03 0.03 90 1010.8
20181116231429 36 280 8.0 17.0 0.00 0.03 0.03 90 1010.7
20181116230936 36 276 8.0 17.0 0.00 0.03 0.03 90 1010.7
20181116225926 36 288 6.0 16.0 0.00 0.04 0.03 90 1010.6
20181116225429 36 333 7.0 17.0 0.00 0.04 0.03 90 1010.5
20181116224939 36 264 9.0 20.0 0.00 0.04 0.03 90 1010.5
20181116224423 36 254 11.0 20.0 0.00 0.04 0.03 90 1010.5
20181116223928 36 250 12.0 19.0 0.00 0.04 0.03 90 1010.3
20181116223430 36 244 10.0 18.0 0.00 0.04 0.03 90 1010.1
20181116222936 36 276 11.0 18.0 0.00 0.04 0.03 90 1010.0
20181116222440 36 283 10.0 18.0 0.00 0.04 0.03 90 1009.9
20181116221930 36 244 11.0 18.0 0.00 0.04 0.03 90 1009.8
20181116221433 36 202 9.0 18.0 0.00 0.04 0.03 90 1009.8
20181116220937 36 232 11.0 17.0 0.00 0.04 0.03 90 1009.8
20181116220421 36 294 8.0 21.0 0.00 0.04 0.03 90 1009.6
20181116215931 36 277 13.0 21.0 0.00 0.04 0.03 90 1009.6
20181116215431 36 264 9.0 18.0 0.00 0.04 0.03 90 1009.4
20181116214938 36 268 10.0 18.0 0.00 0.04 0.03 90 1009.4
20181116214424 36 290 8.0 23.0 0.00 0.04 0.03 90 1009.4
20181116213932 36 262 11.0 23.0 0.00 0.04 0.03 90 1009.2
20181116213437 36 267 11.0 18.0 0.00 0.04 0.03 90 1009.2
20181116212925 36 271 11.0 20.0 0.00 0.04 0.03 90 1009.0
20181116212431 36 229 10.0 21.0 0.00 0.04 0.03 90 1009.0
20181116211937 36 284 12.0 21.0 0.00 0.04 0.03 90 1008.8
20181116211436 35 296 12.0 19.0 0.00 0.04 0.03 90 1008.7
20181116210929 35 276 11.0 19.0 0.00 0.04 0.03 90 1008.4
20181116210430 35 237 12.0 20.0 0.00 0.04 0.03 91 1008.2
20181116205936 35 257 11.0 20.0 0.00 0.04 0.03 91 1008.1
20181116205421 35 300 9.0 18.0 0.00 0.04 0.03 91 1008.0
20181116204930 35 295 8.0 20.0 0.00 0.04 0.03 91 1007.8
20181116204433 35 281 11.0 20.0 0.00 0.04 0.03 91 1007.9
20181116203922 35 276 11.0 19.0 0.00 0.04 0.03 91 1007.9
20181116203426 35 259 12.0 20.0 0.00 0.04 0.03 91 1007.9
20181116202936 35 241 13.0 20.0 0.00 0.04 0.03 91 1007.7
20181116202440 35 283 11.0 18.0 0.00 0.04 0.03 91 1007.6
20181116201930 35 237 8.0 17.0 0.00 0.04 0.03 91 1007.5
20181116201433 35 255 8.0 16.0 0.00 0.04 0.03 91 1007.3
20181116200934 35 236 10.0 18.0 0.00 0.04 0.03 91 1007.3
20181116200440 35 254 11.0 18.0 0.00 0.04 0.03 91 1007.2
20181116195928 34 267 9.0 22.0 0.00 0.04 0.03 91 1007.1
20181116195433 34 244 10.0 22.0 0.00 0.04 0.03 91 1007.0
20181116194922 34 247 11.0 19.0 0.00 0.04 0.03 91 1007.1
20181116194426 34 248 12.0 19.0 0.00 0.04 0.03 92 1007.0
20181116193937 34 252 11.0 21.0 0.00 0.04 0.03 92 1007.0
20181116193421 34 250 11.0 21.0 0.00 0.04 0.03 92 1007.1
20181116192931 34 199 10.0 20.0 0.00 0.04 0.03 92 1006.9
20181116192434 34 254 8.0 17.0 0.00 0.04 0.03 92 1006.9
20181116191939 34 240 10.0 21.0 0.00 0.04 0.03 92 1006.7
20181116191422 34 264 10.0 21.0 0.00 0.04 0.03 92 1006.6
20181116190926 34 229 10.0 18.0 0.00 0.04 0.03 92 1006.7
20181116190429 34 279 12.0 21.0 0.00 0.04 0.03 92 1006.6
20181116185938 34 205 13.0 21.0 0.00 0.04 0.03 92 1006.6
20181116185424 34 267 13.0 20.0 0.00 0.04 0.03 92 1006.5
20181116184933 34 259 12.0 20.0 0.00 0.04 0.03 92 1006.4
20181116184437 33 287 12.0 20.0 0.00 0.04 0.03 92 1006.5
20181116183926 33 252 10.0 23.0 0.00 0.04 0.03 92 1006.5
20181116183430 33 228 13.0 23.0 0.00 0.04 0.03 92 1006.5
20181116182920 33 271 13.0 23.0 0.00 0.04 0.03 92 1006.5
20181116182440 33 265 13.0 23.0 0.00 0.04 0.03 92 1006.4
20181116181931 33 263 12.0 23.0 0.00 0.04 0.03 92 1006.4
20181116181435 33 207 13.0 23.0 0.00 0.04 0.03 92 1006.3
20181116180939 33 238 14.0 23.0 0.00 0.04 0.03 92 1006.3
20181116180423 33 254 14.0 23.0 0.00 0.04 0.03 92 1006.3
20181116175933 33 249 13.0 21.0 0.00 0.04 0.03 92 1006.3
20181116175438 33 262 10.0 21.0 0.00 0.04 0.03 92 1006.2
20181116174930 33 227 12.0 23.0 0.00 0.04 0.03 91 1006.2
20181116174434 33 252 14.0 22.0 0.00 0.04 0.03 91 1006.1
20181116173921 33 302 13.0 21.0 0.00 0.04 0.03 91 1006.1
20181116173425 33 224 14.0 26.0 0.00 0.04 0.03 91 1006.1
20181116172933 33 242 13.0 26.0 0.00 0.04 0.03 91 1006.0
20181116172437 33 262 12.0 21.0 0.00 0.04 0.03 91 1006.1